User: anonymous   Login
Location: Unspecified
(0.0000°N, 0.0000°E)
Time: 03:31:13
(UTC+00:00)
Language:

Transit 2A - Orbit

View from above orbital plane
View from above orbital plane
View from above satellite
View from above satellite

Ground track
Ground track

The orbit data is extracted from the following two-line orbital elements,

1 00045U 60007A   16212.83401224 -.00000057  00000-0  12903-4 0  9990
2 00045  66.6944 156.2376 0263415 267.4763  89.6160 14.33499489919500
Epoch (UTC): 30 July 2016 20:00:58
Eccentricity: 0.0263415
inclination: 66.6944°
perigee height: 591 km
apogee height: 968 km
right ascension of ascending node: 156.2376°
argument of perigee: 267.4763°
revolutions per day: 14.33499489
mean anomaly at epoch: 89.6160°
orbit number at epoch: 91950

The dashed part of the orbit path shows where the satellite is in the earth's shadow,  

DLR